Location: Yellowknife
(62.4500°N, 114.3500°W)
Time: 06:34:12
(UTC-07:00)

Amateur Radio Satellites - All Passes

Search period start: 06 February 2016 06:04
Search period end: 07 February 2016 06:04
Location: Yellowknife, 62.4500°N, 114.3500°W

Satellite Date Start Highest point End Downlink Frequencies (MHz)
Time Altitude Azimuth
AO-7 06 Feb 06:09:40 06:18:02 76° 303° (WNW) 06:26:20 29.400- 29.500
STRAND 1 06 Feb 06:15:13 06:20:21 83° 66° (ENE) 06:25:32 437.568
Cosmos 2504 06 Feb 06:18:05 06:26:46 77° 99° (E) 06:35:42 435.465 / 435.565
GOMX 1 06 Feb 06:20:51 06:22:58 13° 76° (ENE) 06:25:02 467.674
DANDE 06 Feb 06:23:18 06:30:43 34° 321° (NW) 06:38:12 436.750
ITAMSAT 1 06 Feb 06:25:25 06:29:19 22° 322° (NW) 06:33:13 435.822/435.867
CUSAT 1 06 Feb 06:27:17 06:33:58 27° 328° (NNW) 06:40:14 437.405
BRITE-PL 06 Feb 06:30:05 06:34:19 25° 85° (E) 06:38:17 437.365/2234.400
JAS-2 06 Feb 06:35:10 06:39:27 19° 340° (NNW) 06:43:26 435.910
Cosmos 2491 06 Feb 06:49:00 06:52:06 12° 308° (NW) 06:55:12 435.465 / 435.565
HORYU 2 06 Feb 06:57:27 07:01:29 35° 305° (NW) 07:05:31 437.375
SO-50 06 Feb 07:02:44 07:06:53 27° 126° (SE) 07:11:02 436.795
Gurwin Techsat 1B 06 Feb 07:02:44 07:05:19 14° 337° (NNW) 07:07:55 435.225
Oscar 19 06 Feb 07:06:30 07:07:21 10° 349° (N) 07:08:12 437.125/150
M-CUBED/EXP-1 PRIME 06 Feb 07:07:17 07:10:01 25° 315° (NW) 07:12:46 437.505
HO-68 06 Feb 07:10:25 07:14:52 17° 76° (ENE) 07:19:18 435.675
UNISAT 6 06 Feb 07:11:16 07:13:12 13° 36° (NE) 07:15:08 437.425
AUBIESAT-1 06 Feb 07:20:56 07:23:38 23° 315° (NW) 07:26:20 437.475
CUBESAT XI-V 06 Feb 07:22:13 07:24:13 12° 282° (WNW) 07:26:14 437.345
LilacSat-2 06 Feb 07:29:36 07:33:25 79° 107° (ESE) 07:37:13 437.200
GONETS M04 06 Feb 07:30:35 07:35:54 18° 61° (ENE) 07:41:15
CUTE-I 06 Feb 07:31:31 07:36:56 76° 108° (ESE) 07:42:19 437.470
PRISM 06 Feb 07:31:41 07:35:51 64° 256° (WSW) 07:40:03 437.425
CUTE 1.7 + AOD 2 06 Feb 07:39:59 07:42:22 14° 82° (E) 07:44:46 437.475
Cubesat XI-IV 06 Feb 07:43:55 07:49:21 88° 108° (ESE) 07:54:45 437.490
COMPASS 1 06 Feb 07:48:04 07:49:17 11° 79° (ENE) 07:50:30 437.405
CINEMA 3 06 Feb 07:48:32 07:50:48 14° 82° (E) 07:53:02 145.822/145.860
Cosmos 2499 06 Feb 07:53:21 07:56:59 13° 53° (NE) 08:00:38 435.465 / 435.565
SEEDS 06 Feb 07:53:44 07:56:13 15° 83° (E) 07:58:42 437.485
ANTELSAT 06 Feb 07:54:41 07:57:51 20° 46° (NE) 08:01:00 437.575/2403.000
YUBILEINY 06 Feb 07:54:53 08:02:19 29° 327° (NNW) 08:09:47 435.215
STRAND 1 06 Feb 07:55:49 08:00:09 27° 270° (W) 08:04:30 437.568
GOMX 1 06 Feb 07:57:35 08:02:20 53° 100° (E) 08:06:43 467.674
DOVE 4 06 Feb 07:59:51 08:04:00 34° 94° (E) 08:07:55 437.250
AO-7 06 Feb 08:02:31 08:10:00 39° 329° (NNW) 08:17:28 29.400- 29.500
TIGRISAT 06 Feb 08:02:52 08:06:09 22° 48° (NE) 08:09:25 435.000
ITAMSAT 1 06 Feb 08:05:28 08:07:12 12° 345° (NNW) 08:08:55 435.822/435.867
BRITE-PL 06 Feb 08:08:16 08:13:34 87° 289° (WNW) 08:18:24 437.365/2234.400
DANDE 06 Feb 08:10:07 08:16:26 22° 347° (NNW) 08:22:34 436.750
Cosmos 2504 06 Feb 08:12:32 08:20:56 47° 306° (NW) 08:29:31 435.465 / 435.565
POLYITAN 1 06 Feb 08:13:26 08:15:32 14° 38° (NE) 08:17:37 437.675
CUSAT 1 06 Feb 08:13:42 08:19:05 19° 354° (N) 08:24:02 437.405
QB50P2 06 Feb 08:14:12 08:16:23 14° 38° (NE) 08:18:34 145.880/145.840
JAS-2 06 Feb 08:18:37 08:22:22 16° 5° (N) 08:25:53 435.910
AAUSAT CUBESAT 2 06 Feb 08:19:44 08:22:26 16° 84° (E) 08:25:07 437.432
O/OREOS (USA 219) 06 Feb 08:21:13 08:22:35 11° 97° (E) 08:23:57 437.305
CANX-2 06 Feb 08:23:32 08:27:22 30° 93° (E) 08:31:10 2200.000
CUBEBUG 2 06 Feb 08:23:49 08:25:42 13° 81° (E) 08:27:34 437.445
UWE-3 06 Feb 08:33:34 08:35:14 12° 80° (E) 08:36:54 435.000/436.395/437.385
HORYU 2 06 Feb 08:35:01 08:37:01 13° 327° (NNW) 08:39:02 437.375
BUGSAT 1 06 Feb 08:39:56 08:41:52 13° 37° (NE) 08:43:48 437.445
SO-50 06 Feb 08:41:55 08:46:52 72° 148° (SSE) 08:51:48 436.795
Gurwin Techsat 1B 06 Feb 08:42:27 08:43:20 10° 2° (N) 08:44:12 435.225
Oscar 19 06 Feb 08:43:26 08:44:41 11° 14° (NNE) 08:45:56 437.125/150
POPSAT HIP 1 06 Feb 08:44:00 08:46:56 19° 45° (NE) 08:49:52 437.405
UNISAT 6 06 Feb 08:45:00 08:48:59 37° 58° (ENE) 08:52:57 437.425
Oscar 11 06 Feb 08:50:50 08:53:32 16° 84° (E) 08:56:14 145.826/435.025
NANOSAT C BR1 06 Feb 08:51:08 08:54:13 20° 46° (NE) 08:57:17 145.865
DUCHIFAT 1 06 Feb 08:54:24 08:57:30 20° 47° (NE) 09:00:35 145.980
QB50P1 06 Feb 08:56:38 08:59:52 21° 48° (NE) 09:03:05 145.935-145.965
HO-68 06 Feb 08:57:25 09:04:27 51° 100° (E) 09:11:27 435.675
LilacSat-2 06 Feb 09:04:25 09:07:25 22° 307° (NW) 09:10:24 437.200
PRISM 06 Feb 09:09:46 09:12:03 14° 277° (W) 09:14:20 437.425
CUTE-I 06 Feb 09:11:52 09:16:42 35° 310° (NW) 09:21:32 437.470
CUTE 1.7 + AOD 2 06 Feb 09:14:50 09:19:06 64° 103° (ESE) 09:23:22 437.475
COMPASS 1 06 Feb 09:21:47 09:25:55 49° 100° (E) 09:30:02 437.405
GONETS M04 06 Feb 09:22:25 09:30:39 50° 87° (E) 09:38:57
Cubesat XI-IV 06 Feb 09:24:21 09:29:01 31° 313° (NW) 09:33:41 437.490
CINEMA 3 06 Feb 09:24:39 09:28:53 65° 104° (ESE) 09:33:01 145.822/145.860
SEEDS 06 Feb 09:28:31 09:32:47 67° 105° (ESE) 09:37:01 437.485
ANTELSAT 06 Feb 09:29:44 09:34:02 73° 68° (ENE) 09:38:20 437.575/2403.000
GOMX 1 06 Feb 09:35:52 09:40:24 39° 303° (WNW) 09:44:36 467.674
ZACube-1 06 Feb 09:35:56 09:39:27 26° 92° (E) 09:43:00 437.345
DOVE 4 06 Feb 09:37:33 09:41:59 53° 297° (WNW) 09:46:11 437.250
TIGRISAT 06 Feb 09:38:04 09:42:23 81° 69° (ENE) 09:46:41 435.000
Cosmos 2499 06 Feb 09:39:46 09:47:31 36° 79° (E) 09:55:18 435.465 / 435.565
ITAMSAT 1 06 Feb 09:43:28 09:44:42 11° 10° (N) 09:45:56 435.822/435.867
POLYITAN 1 06 Feb 09:46:28 09:50:27 41° 59° (ENE) 09:54:26 437.675
FUNcube-1 06 Feb 09:47:06 09:50:48 30° 94° (E) 09:54:31 145.935
BRITE-PL 06 Feb 09:47:07 09:51:31 27° 313° (NW) 09:55:38 437.365/2234.400
QB50P2 06 Feb 09:47:19 09:51:20 42° 60° (ENE) 09:55:20 145.880/145.840
AO-7 06 Feb 09:54:16 10:00:59 28° 356° (N) 10:07:42 29.400- 29.500
AAUSAT CUBESAT 2 06 Feb 09:54:28 09:58:42 75° 106° (ESE) 10:02:55 437.432
DANDE 06 Feb 09:56:14 10:02:37 23° 15° (NNE) 10:08:32 436.750
YUBILEINY 06 Feb 09:56:30 10:02:51 21° 359° (N) 10:09:13 435.215
O/OREOS (USA 219) 06 Feb 09:56:38 10:00:56 46° 119° (ESE) 10:05:17 437.305
CUSAT 1 06 Feb 09:58:36 10:04:22 22° 22° (NNE) 10:09:28 437.405
CUBEBUG 2 06 Feb 09:59:09 10:03:17 58° 103° (ESE) 10:07:24 437.445
CANX-2 06 Feb 09:59:19 10:03:32 59° 294° (WNW) 10:07:45 2200.000
JAS-2 06 Feb 10:00:09 10:05:25 23° 30° (NNE) 10:10:17 435.910
DELFI C3 06 Feb 10:05:30 10:09:11 33° 95° (E) 10:12:53 145.870
UWE-3 06 Feb 10:08:35 10:12:41 55° 102° (ESE) 10:16:48 435.000/436.395/437.385
Cosmos 2504 06 Feb 10:09:55 10:16:58 25° 335° (NNW) 10:24:02 435.465 / 435.565
BUGSAT 1 06 Feb 10:12:26 10:16:22 39° 59° (ENE) 10:20:15 437.445
POPSAT HIP 1 06 Feb 10:17:55 10:22:07 65° 66° (ENE) 10:26:20 437.405
Gurwin Techsat 1B 06 Feb 10:18:30 10:21:23 15° 26° (NNE) 10:24:15 435.225
Oscar 19 06 Feb 10:18:40 10:22:21 20° 38° (NE) 10:26:02 437.125/150
UNISAT 6 06 Feb 10:21:29 10:25:42 49° 259° (W) 10:29:53 437.425
SO-50 06 Feb 10:22:33 10:27:32 71° 352° (N) 10:32:27 436.795
NANOSAT C BR1 06 Feb 10:25:11 10:29:24 72° 68° (ENE) 10:33:39 145.865
Oscar 11 06 Feb 10:26:08 10:30:30 70° 105° (ESE) 10:34:50 145.826/435.025
DUCHIFAT 1 06 Feb 10:28:27 10:32:41 73° 67° (ENE) 10:36:54 145.980
HUMSAT D 06 Feb 10:29:40 10:33:16 28° 93° (E) 10:36:54 437.325/437.525
QB50P1 06 Feb 10:30:55 10:35:10 80° 71° (ENE) 10:39:26 145.935-145.965
DX 1 06 Feb 10:32:33 10:33:53 11° 79° (E) 10:35:12 434.975-435.025
HO-68 06 Feb 10:45:21 10:52:28 63° 304° (NW) 10:59:33 435.675
AIST 1 06 Feb 10:50:39 10:54:13 25° 86° (E) 10:57:49
CUTE 1.7 + AOD 2 06 Feb 10:51:01 10:54:46 30° 305° (NW) 10:58:31 437.475
CUTE-I 06 Feb 10:52:25 10:55:30 16° 333° (NNW) 10:58:36 437.470
COMPASS 1 06 Feb 10:57:34 11:01:28 37° 301° (WNW) 11:05:22 437.405
CINEMA 3 06 Feb 11:02:09 11:05:51 29° 306° (NW) 11:09:27 145.822/145.860
SEEDS 06 Feb 11:04:35 11:08:16 29° 306° (NW) 11:11:58 437.485
Cubesat XI-IV 06 Feb 11:04:54 11:07:45 15° 336° (NNW) 11:10:35 437.490
50 SAT 06 Feb 11:06:19 11:09:04 19° 89° (E) 11:11:49 437.505
ANTELSAT 06 Feb 11:07:42 11:11:15 24° 269° (W) 11:14:47 437.575/2403.000
PCSat 06 Feb 11:10:26 11:10:50 10° 101° (ESE) 11:11:15 145.827
VELOX 1 06 Feb 11:11:21 11:14:41 20° 87° (E) 11:18:01 145.980
ZACube-1 06 Feb 11:12:01 11:16:10 66° 293° (WNW) 11:20:20 437.345
GOMX 1 06 Feb 11:14:43 11:17:22 15° 326° (NNW) 11:19:56 467.674
DOVE 4 06 Feb 11:15:58 11:18:53 17° 320° (NW) 11:21:42 437.250
TIGRISAT 06 Feb 11:16:14 11:19:38 22° 271° (W) 11:23:01 435.000
GONETS M04 06 Feb 11:18:42 11:27:22 67° 294° (WNW) 11:36:08
ITAMSAT 1 06 Feb 11:18:58 11:22:27 18° 34° (NNE) 11:25:56 435.822/435.867
POLYITAN 1 06 Feb 11:22:15 11:26:20 44° 261° (W) 11:30:25 437.675
QB50P2 06 Feb 11:23:09 11:27:13 43° 261° (W) 11:31:17 145.880/145.840
FUNcube-1 06 Feb 11:23:16 11:27:21 57° 295° (WNW) 11:31:29 145.935
BRITE-PL 06 Feb 11:26:18 11:28:30 13° 336° (NNW) 11:30:39 437.365/2234.400
AISAT 06 Feb 11:27:05 11:30:52 26° 92° (E) 11:34:36 437.250
AAUSAT CUBESAT 2 06 Feb 11:30:23 11:33:55 27° 307° (NW) 11:37:27 437.432
Cosmos 2499 06 Feb 11:31:01 11:39:53 90° 91° (E) 11:48:49 435.465 / 435.565
ESTCUBE 1 06 Feb 11:32:48 11:36:53 31° 93° (E) 11:40:56 437.505/2401.250
CANX-2 06 Feb 11:35:54 11:38:43 17° 316° (NW) 11:41:32 2200.000
O/OREOS (USA 219) 06 Feb 11:35:57 11:40:22 54° 322° (NW) 11:44:52 437.305
CUBEBUG 2 06 Feb 11:36:06 11:39:48 31° 304° (NW) 11:43:29 437.445
DELFI C3 06 Feb 11:40:23 11:44:19 50° 296° (WNW) 11:48:14 145.870
DANDE 06 Feb 11:40:36 11:48:13 36° 42° (NE) 11:54:51 436.750
CUSAT 1 06 Feb 11:41:49 11:48:54 41° 49° (NE) 11:54:39 437.405
JAS-2 06 Feb 11:42:15 11:49:16 47° 54° (NE) 11:55:36 435.910
AO-7 06 Feb 11:44:40 11:51:50 33° 23° (NNE) 11:58:58 29.400- 29.500
RS-15 06 Feb 11:44:59 11:53:39 27° 102° (ESE) 12:02:37 29.354- 29.394
UWE-3 06 Feb 11:45:20 11:49:04 33° 303° (WNW) 11:52:49 435.000/436.395/437.385
BUGSAT 1 06 Feb 11:47:42 11:51:46 46° 260° (W) 11:55:49 437.445
POPSAT HIP 1 06 Feb 11:54:38 11:58:18 27° 267° (W) 12:01:58 437.405
Gurwin Techsat 1B 06 Feb 11:55:21 12:00:03 33° 49° (NE) 12:04:45 435.225
Oscar 19 06 Feb 11:55:47 12:00:49 53° 60° (ENE) 12:05:52 437.125/150
YUBILEINY 06 Feb 11:56:02 12:03:26 28° 32° (NNE) 12:10:48 435.215
CUBEBUG 1 06 Feb 11:58:22 12:02:30 37° 97° (E) 12:06:34 437.445
UKube-1 06 Feb 12:02:03 12:06:11 40° 98° (E) 12:10:16 .
NANOSAT C BR1 06 Feb 12:02:05 12:05:37 25° 269° (W) 12:09:08 145.865
UNISAT 6 06 Feb 12:02:14 12:03:30 11° 281° (W) 12:04:47 437.425
AO-85 06 Feb 12:02:17 12:06:36 24° 121° (ESE) 12:10:56 145.980
Oscar 11 06 Feb 12:02:38 12:06:23 29° 306° (NW) 12:10:09 145.826/435.025
SO-50 06 Feb 12:03:25 12:08:24 78° 16° (NNE) 12:13:17 436.795
HUMSAT D 06 Feb 12:05:11 12:09:16 60° 294° (WNW) 12:13:21 437.325/437.525
DUCHIFAT 1 06 Feb 12:05:23 12:08:51 24° 269° (W) 12:12:20 145.980
DX 1 06 Feb 12:06:55 12:11:11 48° 101° (E) 12:15:25 434.975-435.025
Cosmos 2504 06 Feb 12:07:43 12:14:10 21° 6° (N) 12:20:32 435.465 / 435.565
QB50P1 06 Feb 12:08:08 12:11:30 22° 270° (W) 12:14:52 145.935-145.965
SPROUT 06 Feb 12:18:18 12:21:57 26° 92° (E) 12:25:34 437.525
AIST 1 06 Feb 12:27:03 12:31:28 73° 288° (WNW) 12:35:55
CUTE 1.7 + AOD 2 06 Feb 12:28:23 12:29:31 11° 327° (NNW) 12:30:39 437.475
CUTE-I 06 Feb 12:32:26 12:33:41 11° 357° (N) 12:34:56 437.470
HO-68 06 Feb 12:33:10 12:39:12 30° 329° (NNW) 12:45:13 435.675
COMPASS 1 06 Feb 12:34:19 12:36:06 12° 323° (NW) 12:37:52 437.405
50 SAT 06 Feb 12:39:50 12:43:38 82° 289° (WNW) 12:47:26 437.505
CINEMA 3 06 Feb 12:41:02 12:41:50 10° 329° (NNW) 12:42:39 145.822/145.860
SEEDS 06 Feb 12:42:00 12:42:52 11° 328° (NNW) 12:43:44 437.485
TISAT 1 06 Feb 12:42:45 12:45:57 21° 88° (E) 12:49:07 437.305
Cubesat XI-IV 06 Feb 12:44:40 12:45:54 11° 0° (N) 12:47:08 437.490
VELOX 1 06 Feb 12:47:21 12:51:51 87° 107° (ESE) 12:56:18 145.980
PCSat 06 Feb 12:47:54 12:52:48 36° 123° (ESE) 12:57:44 145.827
ZACube-1 06 Feb 12:49:01 12:51:53 18° 314° (NW) 12:54:45 437.345
ITAMSAT 1 06 Feb 12:55:59 13:00:56 46° 57° (ENE) 13:05:55 435.822/435.867
FUNcube-1 06 Feb 13:00:20 13:02:57 16° 316° (NW) 13:05:35 145.935
ITUPSAT 1 06 Feb 13:02:20 13:03:15 10° 76° (ENE) 13:04:10 437.325
AISAT 06 Feb 13:03:22 13:07:50 72° 294° (WNW) 13:12:15 437.250
ESTCUBE 1 06 Feb 13:09:31 13:14:03 63° 295° (WNW) 13:18:34 437.505/2401.250
BEESAT 06 Feb 13:12:32 13:14:36 13° 79° (ENE) 13:16:41 436.000
CUBEBUG 2 06 Feb 13:14:19 13:15:22 11° 327° (NNW) 13:16:25 437.445
DELFI C3 06 Feb 13:16:13 13:18:29 15° 318° (NW) 13:20:45 145.870
O/OREOS (USA 219) 06 Feb 13:16:45 13:20:40 28° 346° (NNW) 13:24:36 437.305
GONETS M04 06 Feb 13:18:35 13:26:06 31° 323° (NW) 13:33:41
HORYU 2 06 Feb 13:18:55 13:21:32 16° 38° (NE) 13:24:09 437.375
M-CUBED/EXP-1 PRIME 06 Feb 13:21:16 13:24:06 23° 44° (NE) 13:26:48 437.505
UWE-3 06 Feb 13:23:16 13:24:31 11° 326° (NW) 13:25:47 435.000/436.395/437.385
DANDE 06 Feb 13:24:07 13:32:30 80° 69° (ENE) 13:39:23 436.750
CUSAT 1 06 Feb 13:24:32 13:31:58 78° 256° (WSW) 13:37:45 437.405
Cosmos 2499 06 Feb 13:25:52 13:34:08 41° 311° (NW) 13:42:25 435.465 / 435.565
JAS-2 06 Feb 13:26:37 13:34:10 71° 255° (WSW) 13:40:59 435.910
BUGSAT 1 06 Feb 13:27:43 13:28:14 10° 281° (W) 13:28:45 437.445
Gurwin Techsat 1B 06 Feb 13:34:19 13:39:40 81° 252° (WSW) 13:45:03 435.225
AUBIESAT-1 06 Feb 13:34:30 13:37:24 25° 46° (NE) 13:40:14 437.475
CUBEBUG 1 06 Feb 13:34:41 13:38:59 50° 298° (WNW) 13:43:14 437.445
AO-7 06 Feb 13:35:15 13:43:24 59° 49° (NE) 13:51:33 29.400- 29.500
Oscar 19 06 Feb 13:35:24 13:40:20 43° 262° (W) 13:45:19 437.125/150
UKube-1 06 Feb 13:38:12 13:42:22 46° 300° (WNW) 13:46:31 .
Oscar 11 06 Feb 13:40:16 13:41:22 11° 329° (NNW) 13:42:28 145.826/435.025
AO-85 06 Feb 13:41:01 13:46:27 63° 143° (SE) 13:51:51 145.980
HUMSAT D 06 Feb 13:41:34 13:44:16 17° 316° (NW) 13:46:57 437.325/437.525
DX 1 06 Feb 13:43:17 13:47:23 40° 303° (WNW) 13:51:28 434.975-435.025
SO-50 06 Feb 13:44:04 13:48:53 54° 219° (SW) 13:53:33 436.795
RS-15 06 Feb 13:52:37 14:03:40 61° 130° (SE) 14:15:20 29.354- 29.394
YUBILEINY 06 Feb 13:53:44 14:02:30 57° 61° (ENE) 14:11:12 435.215
SPROUT 06 Feb 13:54:04 13:58:21 68° 293° (WNW) 14:02:35 437.525
SWISSCUBE 06 Feb 14:03:12 14:07:22 28° 92° (E) 14:11:29 437.505
Cosmos 2504 06 Feb 14:03:17 14:11:02 31° 37° (NE) 14:18:32 435.465 / 435.565
AIST 1 06 Feb 14:06:38 14:09:54 20° 311° (NW) 14:13:10
CUTE-I 06 Feb 14:09:10 14:11:47 14° 22° (NNE) 14:14:26 437.470
Cosmos 2491 06 Feb 14:14:13 14:20:46 25° 69° (ENE) 14:27:20 435.465 / 435.565
50 SAT 06 Feb 14:14:29 14:17:14 19° 311° (NW) 14:19:58 437.505
TISAT 1 06 Feb 14:17:59 14:22:13 86° 287° (WNW) 14:26:25 437.305
HO-68 06 Feb 14:20:02 14:25:05 21° 354° (N) 14:30:07 435.675
Cubesat XI-IV 06 Feb 14:21:10 14:24:05 15° 25° (NNE) 14:26:59 437.490
VELOX 1 06 Feb 14:24:16 14:27:57 26° 311° (NW) 14:31:36 145.980
PCSat 06 Feb 14:30:23 14:35:52 89° 332° (NNW) 14:41:21 145.827
ITAMSAT 1 06 Feb 14:35:22 14:40:27 52° 259° (W) 14:45:35 435.822/435.867
ITUPSAT 1 06 Feb 14:37:50 14:42:26 42° 98° (E) 14:47:01 437.325
BRITE-PL 06 Feb 14:39:06 14:41:25 13° 24° (NNE) 14:43:41 437.365/2234.400
AISAT 06 Feb 14:40:25 14:43:45 21° 315° (NW) 14:47:05 437.250
ESTCUBE 1 06 Feb 14:46:55 14:50:12 20° 317° (NW) 14:53:28 437.505/2401.250
BEESAT 06 Feb 14:48:54 14:53:35 50° 101° (E) 14:58:16 436.000
HORYU 2 06 Feb 14:53:01 14:57:15 46° 60° (ENE) 15:01:29 437.375
M-CUBED/EXP-1 PRIME 06 Feb 14:54:59 14:58:33 75° 245° (WSW) 15:01:56 437.505
O/OREOS (USA 219) 06 Feb 14:57:27 15:01:19 27° 11° (N) 15:05:13 437.305
CUSAT 1 06 Feb 15:07:30 15:13:09 26° 283° (WNW) 15:17:55 437.405
DANDE 06 Feb 15:07:33 15:14:57 40° 275° (W) 15:21:13 436.750
AUBIESAT-1 06 Feb 15:08:17 15:11:50 67° 246° (WSW) 15:15:13 437.475
CUBEBUG 1 06 Feb 15:11:44 15:14:28 16° 320° (NW) 15:17:13 437.445
JAS-2 06 Feb 15:14:24 15:20:18 25° 277° (W) 15:25:50 435.910
UKube-1 06 Feb 15:15:02 15:17:36 16° 322° (NW) 15:20:09 .
Gurwin Techsat 1B 06 Feb 15:16:19 15:20:28 22° 274° (W) 15:24:37 435.225
LilacSat-2 06 Feb 15:17:08 15:18:13 11° 39° (NE) 15:19:17 437.200
Oscar 19 06 Feb 15:19:24 15:21:05 11° 285° (WNW) 15:22:48 437.125/150
MOZHAYETS 4 06 Feb 15:19:56 15:22:23 14° 80° (E) 15:24:51
GONETS M04 06 Feb 15:20:14 15:26:29 21° 355° (N) 15:32:47
DX 1 06 Feb 15:20:21 15:22:39 14° 324° (NW) 15:24:57 434.975-435.025
AO-85 06 Feb 15:21:33 15:27:05 76° 346° (NNW) 15:32:29 145.980
Cosmos 2499 06 Feb 15:23:23 15:30:10 23° 340° (NNW) 15:36:52 435.465 / 435.565
SO-50 06 Feb 15:25:13 15:28:32 18° 241° (WSW) 15:31:47 436.795
AO-7 06 Feb 15:27:59 15:36:17 63° 253° (WSW) 15:44:38 29.400- 29.500
SPROUT 06 Feb 15:30:40 15:33:44 19° 315° (NW) 15:36:46 437.525
SWISSCUBE 06 Feb 15:40:50 15:45:40 75° 293° (WNW) 15:50:28 437.505
CUTE-I 06 Feb 15:45:54 15:50:25 29° 46° (NE) 15:54:57 437.470
STARS 06 Feb 15:46:52 15:50:25 23° 90° (E) 15:53:56 437.465
YUBILEINY 06 Feb 15:50:55 15:59:34 60° 268° (W) 16:08:11 435.215
KKS-1 06 Feb 15:53:30 15:57:40 38° 97° (E) 16:01:49 437.445
TISAT 1 06 Feb 15:54:10 15:57:27 22° 312° (NW) 16:00:43 437.305
Cosmos 2504 06 Feb 15:57:25 16:06:19 66° 65° (ENE) 16:14:48 435.465 / 435.565
Cubesat XI-IV 06 Feb 15:58:09 16:02:50 32° 48° (NE) 16:07:32 437.490
VELOX 1 06 Feb 16:02:21 16:03:10 10° 333° (NNW) 16:03:58 145.980
GOMX 1 06 Feb 16:02:44 16:06:03 17° 38° (NE) 16:09:14 467.674
RS-15 06 Feb 16:04:15 16:15:51 86° 341° (NNW) 16:28:06 29.354- 29.394
DOVE 4 06 Feb 16:04:35 16:06:31 12° 32° (NNE) 16:08:24 437.250
HO-68 06 Feb 16:05:17 16:10:47 24° 21° (NNE) 16:16:17 435.675
Cosmos 2491 06 Feb 16:07:32 16:16:07 67° 95° (E) 16:24:44 435.465 / 435.565
BRITE-PL 06 Feb 16:13:48 16:18:25 27° 47° (NE) 16:22:53 437.365/2234.400
PCSat 06 Feb 16:14:21 16:19:43 55° 351° (N) 16:25:05 145.827
ITUPSAT 1 06 Feb 16:15:47 16:20:27 51° 300° (WNW) 16:25:07 437.325
ITAMSAT 1 06 Feb 16:18:27 16:21:11 14° 281° (W) 16:23:55 435.822/435.867
BEESAT 06 Feb 16:26:52 16:31:25 43° 302° (WNW) 16:35:57 436.000
HORYU 2 06 Feb 16:29:44 16:33:56 42° 261° (W) 16:38:10 437.375
M-CUBED/EXP-1 PRIME 06 Feb 16:31:57 16:33:48 14° 264° (W) 16:35:36 437.505
O/OREOS (USA 219) 06 Feb 16:37:15 16:41:42 47° 36° (NE) 16:46:09 437.305
AUBIESAT-1 06 Feb 16:45:36 16:47:05 12° 266° (W) 16:48:32 437.475
LilacSat-2 06 Feb 16:48:08 16:51:39 36° 60° (ENE) 16:55:10 437.200
DANDE 06 Feb 16:51:58 16:55:44 14° 299° (WNW) 16:59:15 436.750
MOZHAYETS 4 06 Feb 16:56:00 17:00:36 57° 102° (ESE) 17:05:11
AO-85 06 Feb 17:02:32 17:08:04 72° 10° (N) 17:13:20 145.980
CUTE 1.7 + AOD 2 06 Feb 17:09:43 17:11:39 13° 37° (NE) 17:13:35 437.475
COMPASS 1 06 Feb 17:16:27 17:17:26 11° 33° (NNE) 17:18:24 437.405
SWISSCUBE 06 Feb 17:19:08 17:22:55 24° 315° (NW) 17:26:42 437.505
GONETS M04 06 Feb 17:20:06 17:27:09 26° 28° (NNE) 17:34:15
Cosmos 2499 06 Feb 17:20:39 17:27:09 22° 12° (NNE) 17:33:28 435.465 / 435.565
SEEDS 06 Feb 17:22:40 17:24:36 13° 38° (NE) 17:26:34 437.485
STARS 06 Feb 17:22:55 17:27:20 80° 290° (WNW) 17:31:43 437.465
AO-7 06 Feb 17:24:32 17:30:53 23° 278° (W) 17:37:16 29.400- 29.500
CUTE-I 06 Feb 17:24:37 17:29:59 84° 68° (ENE) 17:35:23 437.470
CINEMA 3 06 Feb 17:25:21 17:27:54 15° 40° (NE) 17:30:24 145.822/145.860
CUBESAT XI-V 06 Feb 17:26:35 17:30:22 23° 88° (E) 17:34:07 437.345
KKS-1 06 Feb 17:30:07 17:34:26 50° 298° (WNW) 17:38:44 437.445
Cubesat XI-IV 06 Feb 17:37:11 17:42:33 84° 251° (WSW) 17:47:57 437.490
GOMX 1 06 Feb 17:38:08 17:43:12 45° 59° (ENE) 17:48:01 467.674
DOVE 4 06 Feb 17:38:43 17:43:04 31° 54° (NE) 17:47:13 437.250
AAUSAT CUBESAT 2 06 Feb 17:47:20 17:49:24 14° 39° (NE) 17:51:29 437.432
YUBILEINY 06 Feb 17:48:22 17:54:40 23° 294° (WNW) 18:00:57 435.215
HO-68 06 Feb 17:50:23 17:57:05 44° 46° (NE) 18:03:49 435.675
BRITE-PL 06 Feb 17:50:38 17:56:19 76° 68° (ENE) 18:01:48 437.365/2234.400
Cosmos 2504 06 Feb 17:51:11 17:59:40 52° 272° (W) 18:07:45 435.465 / 435.565
CANX-2 06 Feb 17:52:18 17:55:32 22° 49° (NE) 17:58:47 2200.000
ITUPSAT 1 06 Feb 17:54:14 17:57:27 18° 322° (NW) 18:00:40 437.325
CUBEBUG 2 06 Feb 17:57:59 17:59:54 13° 38° (NE) 18:01:50 437.445
PCSat 06 Feb 17:58:24 18:03:48 60° 16° (NNE) 18:09:13 145.827
Cosmos 2491 06 Feb 18:04:59 18:13:27 52° 302° (WNW) 18:21:58 435.465 / 435.565
BEESAT 06 Feb 18:05:21 18:08:15 16° 325° (NW) 18:11:10 436.000
UWE-3 06 Feb 18:06:52 18:08:34 12° 37° (NE) 18:10:16 435.000/436.395/437.385
STRAND 1 06 Feb 18:15:37 18:18:15 14° 79° (ENE) 18:20:53 437.568
O/OREOS (USA 219) 06 Feb 18:16:47 18:21:16 55° 238° (WSW) 18:25:45 437.305
RS-15 06 Feb 18:17:16 18:29:06 83° 12° (NNE) 18:41:28 29.354- 29.394
Oscar 11 06 Feb 18:22:01 18:24:24 15° 39° (NE) 18:26:47 145.826/435.025
LilacSat-2 06 Feb 18:22:19 18:25:59 42° 261° (W) 18:29:39 437.200
MOZHAYETS 4 06 Feb 18:33:26 18:37:41 37° 303° (WNW) 18:41:56
BEESAT 3 06 Feb 18:41:23 18:43:44 15° 120° (ESE) 18:46:05 437.485
CUTE 1.7 + AOD 2 06 Feb 18:42:37 18:46:33 38° 59° (ENE) 18:50:31 437.475
AO-85 06 Feb 18:43:20 18:48:47 71° 214° (SW) 18:53:53 145.980
COMPASS 1 06 Feb 18:48:16 18:51:55 30° 56° (NE) 18:55:36 437.405
SEEDS 06 Feb 18:55:29 18:59:24 39° 60° (ENE) 19:03:21 437.485
SWISSCUBE 06 Feb 18:58:08 18:59:18 11° 338° (NNW) 19:00:29 437.505
BEESAT 2 06 Feb 18:58:59 19:01:22 15° 120° (ESE) 19:03:45 435.950
STARS 06 Feb 18:59:48 19:03:13 22° 313° (NW) 19:06:37 437.465
CINEMA 3 06 Feb 18:59:54 19:04:16 46° 62° (ENE) 19:08:27 145.822/145.860
CUBESAT XI-V 06 Feb 19:03:37 19:08:23 88° 294° (WNW) 19:13:08 437.345
PRISM 06 Feb 19:04:45 19:05:30 10° 79° (E) 19:06:14 437.425
CUTE-I 06 Feb 19:06:10 19:10:41 27° 270° (W) 19:15:15 437.470
KKS-1 06 Feb 19:07:24 19:10:13 17° 321° (NW) 19:13:01 437.445
ZACube-1 06 Feb 19:07:26 19:10:30 20° 48° (NE) 19:13:35 437.345
DOVE 4 06 Feb 19:15:28 19:20:32 76° 255° (WSW) 19:25:19 437.250
Cosmos 2499 06 Feb 19:15:35 19:23:31 35° 42° (NE) 19:31:03 435.465 / 435.565
GOMX 1 06 Feb 19:16:02 19:21:18 53° 260° (W) 19:26:18 467.674
GONETS M04 06 Feb 19:17:56 19:26:29 51° 58° (ENE) 19:35:02
FUNcube-1 06 Feb 19:18:11 19:21:26 22° 50° (NE) 19:24:40 145.935
Cubesat XI-IV 06 Feb 19:19:12 19:23:26 23° 273° (W) 19:27:43 437.490
AAUSAT CUBESAT 2 06 Feb 19:20:07 19:24:01 42° 61° (ENE) 19:28:00 437.432
CANX-2 06 Feb 19:26:41 19:30:55 82° 69° (ENE) 19:35:12 2200.000
DELFI C3 06 Feb 19:28:35 19:31:36 21° 50° (NE) 19:34:39 145.870
BRITE-PL 06 Feb 19:30:12 19:35:16 32° 269° (W) 19:40:12 437.365/2234.400
CUBEBUG 2 06 Feb 19:31:39 19:35:38 39° 60° (ENE) 19:39:34 437.445
ESTCUBE 1 06 Feb 19:34:13 19:35:22 11° 27° (NNE) 19:36:32 437.505/2401.250
HO-68 06 Feb 19:37:18 19:44:31 79° 249° (WSW) 19:51:48 435.675
UWE-3 06 Feb 19:40:12 19:44:06 37° 59° (ENE) 19:47:57 435.000/436.395/437.385
PCSat 06 Feb 19:42:01 19:47:29 73° 220° (SW) 19:52:54 145.827
Cosmos 2504 06 Feb 19:45:22 19:51:04 20° 298° (WNW) 19:56:38 435.465 / 435.565
STRAND 1 06 Feb 19:53:36 19:58:41 52° 101° (E) 20:03:44 437.568
Oscar 11 06 Feb 19:55:33 19:59:40 44° 61° (ENE) 20:03:48 145.826/435.025
CUBEBUG 1 06 Feb 19:56:43 19:58:04 11° 30° (NNE) 19:59:24 437.445
HUMSAT D 06 Feb 19:57:17 20:00:18 20° 48° (NE) 20:03:20 437.325/437.525
O/OREOS (USA 219) 06 Feb 19:57:24 19:59:47 14° 260° (W) 20:02:11 437.305
UKube-1 06 Feb 19:58:55 20:00:36 12° 32° (NNE) 20:02:17 .
DX 1 06 Feb 20:03:51 20:06:02 14° 35° (NE) 20:08:13 434.975-435.025
Cosmos 2491 06 Feb 20:05:43 20:12:45 26° 332° (NNW) 20:19:49 435.465 / 435.565
ISS 06 Feb 20:07:18 20:08:37 12° 170° (S) 20:09:56 145.825
MOZHAYETS 4 06 Feb 20:11:31 20:13:48 14° 326° (NW) 20:16:06
BEESAT 3 06 Feb 20:16:52 20:20:46 51° 142° (SE) 20:24:39 437.485
CUTE 1.7 + AOD 2 06 Feb 20:18:20 20:22:24 47° 261° (W) 20:26:32 437.475
COMPASS 1 06 Feb 20:23:11 20:27:19 62° 256° (WSW) 20:31:31 437.405
AO-85 06 Feb 20:24:14 20:28:42 27° 237° (WSW) 20:32:54 145.980
50 SAT 06 Feb 20:25:14 20:26:57 13° 42° (NE) 20:28:40 437.505
AIST 2 06 Feb 20:26:11 20:28:33 15° 119° (ESE) 20:30:56 435.215
RS-15 06 Feb 20:29:57 20:41:44 71° 223° (SW) 20:53:55 29.354- 29.394
SEEDS 06 Feb 20:31:06 20:35:08 45° 261° (W) 20:39:14 437.485
BEESAT 2 06 Feb 20:34:36 20:38:32 51° 142° (SE) 20:42:28 435.950
CINEMA 3 06 Feb 20:37:12 20:41:32 41° 262° (W) 20:45:43 145.822/145.860
PRISM 06 Feb 20:37:50 20:41:55 46° 101° (E) 20:45:58 437.425
CUBESAT XI-V 06 Feb 20:41:27 20:45:20 26° 311° (NW) 20:49:13 437.345
ZACube-1 06 Feb 20:42:06 20:46:19 77° 70° (ENE) 20:50:30 437.345
VELOX 1 06 Feb 20:44:13 20:47:26 20° 44° (NE) 20:50:39 145.980
AIST 1 06 Feb 20:45:14 20:48:58 26° 55° (NE) 20:52:40
FUNcube-1 06 Feb 20:53:05 20:57:18 88° 66° (ENE) 21:01:29 145.935
DOVE 4 06 Feb 20:55:24 20:58:59 19° 275° (W) 21:02:29 437.250
AAUSAT CUBESAT 2 06 Feb 20:55:40 20:59:37 41° 262° (W) 21:03:37 437.432
GOMX 1 06 Feb 20:57:37 21:00:30 15° 281° (WNW) 21:03:20 467.674
AISAT 06 Feb 20:59:43 21:03:18 24° 48° (NE) 21:06:51 437.250
DELFI C3 06 Feb 21:02:04 21:06:05 85° 68° (ENE) 21:10:08 145.870
CANX-2 06 Feb 21:04:03 21:07:20 22° 272° (W) 21:10:40 2200.000
ESTCUBE 1 06 Feb 21:07:08 21:10:55 27° 50° (NE) 21:14:44 437.505/2401.250
CUBEBUG 2 06 Feb 21:08:10 21:12:19 45° 261° (W) 21:16:23 437.445
Cosmos 2499 06 Feb 21:09:20 21:18:12 77° 71° (ENE) 21:26:28 435.465 / 435.565
GONETS M04 06 Feb 21:15:09 21:23:50 68° 264° (W) 21:32:32
UWE-3 06 Feb 21:16:26 21:20:34 49° 260° (W) 21:24:39 435.000/436.395/437.385
PCSat 06 Feb 21:25:48 21:30:14 26° 243° (WSW) 21:34:39 145.827
HO-68 06 Feb 21:27:25 21:33:24 28° 273° (W) 21:39:25 435.675
CUBEBUG 1 06 Feb 21:29:22 21:33:11 29° 53° (NE) 21:37:02 437.445
HUMSAT D 06 Feb 21:31:22 21:35:28 79° 69° (ENE) 21:39:35 437.325/437.525
UKube-1 06 Feb 21:31:43 21:35:36 32° 54° (NE) 21:39:28 .
Oscar 11 06 Feb 21:31:49 21:35:55 41° 262° (W) 21:40:02 145.826/435.025
STRAND 1 06 Feb 21:32:59 21:37:54 46° 303° (WNW) 21:42:49 437.568
DX 1 06 Feb 21:37:11 21:41:15 38° 57° (ENE) 21:45:20 434.975-435.025
ISS 06 Feb 21:42:46 21:44:05 12° 190° (S) 21:45:25 145.825
SPROUT 06 Feb 21:47:51 21:51:06 21° 47° (NE) 21:54:21 437.525
BEESAT 3 06 Feb 21:54:30 21:58:31 72° 344° (NNW) 22:02:31 437.485
50 SAT 06 Feb 21:56:40 22:00:14 45° 63° (ENE) 22:03:51 437.505
CUTE 1.7 + AOD 2 06 Feb 21:58:31 21:59:22 10° 282° (WNW) 22:00:13 437.475
COMPASS 1 06 Feb 22:01:37 22:03:47 14° 278° (W) 22:05:59 437.405
AIST 2 06 Feb 22:02:13 22:06:16 49° 140° (SE) 22:10:18 435.215
UNISAT 6 06 Feb 22:02:23 22:05:21 18° 86° (E) 22:08:18 437.425
Cosmos 2491 06 Feb 22:07:12 22:13:26 21° 5° (N) 22:19:40 435.465 / 435.565
SWISSCUBE 06 Feb 22:09:16 22:11:09 12° 26° (NNE) 22:13:03 437.505
TISAT 1 06 Feb 22:10:52 22:13:42 18° 44° (NE) 22:16:33 437.305
SEEDS 06 Feb 22:11:48 22:12:00 10° 283° (WNW) 22:12:11 437.485
BEESAT 2 06 Feb 22:12:22 22:16:25 72° 344° (NNW) 22:20:28 435.950
PRISM 06 Feb 22:13:20 22:17:16 39° 302° (WNW) 22:21:10 437.425
VELOX 1 06 Feb 22:18:50 22:23:16 64° 65° (ENE) 22:27:43 145.980
ZACube-1 06 Feb 22:19:46 22:23:08 23° 271° (W) 22:26:27 437.345
CUBESAT XI-V 06 Feb 22:20:10 22:21:23 11° 334° (NNW) 22:22:35 437.345
AIST 1 06 Feb 22:22:40 22:27:06 77° 258° (WSW) 22:31:28
FUNcube-1 06 Feb 22:31:04 22:34:10 20° 272° (W) 22:37:14 145.935
AISAT 06 Feb 22:34:49 22:39:19 84° 71° (ENE) 22:43:50 437.250
DELFI C3 06 Feb 22:38:36 22:41:34 20° 272° (W) 22:44:32 145.870
RS-15 06 Feb 22:42:19 22:52:30 35° 251° (WSW) 23:02:54 29.354- 29.394
ESTCUBE 1 06 Feb 22:42:48 22:47:22 86° 255° (WSW) 22:51:58 437.505/2401.250
ITUPSAT 1 06 Feb 22:42:57 22:45:42 15° 33° (NNE) 22:48:28 437.325
ANTELSAT 06 Feb 22:47:02 22:51:00 35° 96° (E) 22:54:59 437.575/2403.000
CUBEBUG 2 06 Feb 22:49:41 22:50:04 10° 282° (WNW) 22:50:26 437.445
BEESAT 06 Feb 22:53:20 22:56:21 17° 36° (NE) 22:59:22 436.000
TIGRISAT 06 Feb 22:55:09 22:59:10 38° 97° (E) 23:03:12 435.000
POLYITAN 1 06 Feb 22:56:43 22:59:30 17° 85° (E) 23:02:16 437.675
UWE-3 06 Feb 22:57:03 22:58:06 11° 281° (W) 22:59:08 435.000/436.395/437.385
QB50P2 06 Feb 22:57:30 23:00:22 17° 86° (E) 23:03:14 145.880/145.840
Cosmos 2499 06 Feb 23:02:51 23:10:53 43° 277° (W) 23:18:29 435.465 / 435.565
CUBEBUG 1 06 Feb 23:04:46 23:09:13 74° 253° (WSW) 23:13:41 437.445
UKube-1 06 Feb 23:07:09 23:11:29 63° 255° (WSW) 23:15:50 .
HUMSAT D 06 Feb 23:08:27 23:11:38 21° 271° (W) 23:14:50 437.325/437.525
GONETS M04 06 Feb 23:12:32 23:19:14 26° 290° (WNW) 23:25:56
STRAND 1 06 Feb 23:12:42 23:16:07 18° 326° (NW) 23:19:31 437.568
DX 1 06 Feb 23:13:06 23:17:25 52° 258° (WSW) 23:21:44 434.975-435.025
BUGSAT 1 06 Feb 23:19:26 23:21:46 15° 84° (E) 23:24:04 437.445
SPROUT 06 Feb 23:22:16 23:26:34 77° 70° (ENE) 23:30:54 437.525
POPSAT HIP 1 06 Feb 23:27:49 23:31:25 27° 92° (E) 23:35:00 437.405
50 SAT 06 Feb 23:31:04 23:34:26 32° 264° (W) 23:37:51 437.505
BEESAT 3 06 Feb 23:32:37 23:36:36 62° 7° (N) 23:40:35 437.485
NANOSAT C BR1 06 Feb 23:34:40 23:38:23 29° 94° (E) 23:42:04 145.865
DUCHIFAT 1 06 Feb 23:37:39 23:41:23 30° 94° (E) 23:45:05 145.980
UNISAT 6 06 Feb 23:38:29 23:42:48 80° 107° (ESE) 23:47:09 437.425
AIST 2 06 Feb 23:40:32 23:44:44 74° 344° (NNW) 23:48:54 435.215
QB50P1 06 Feb 23:40:42 23:44:33 33° 95° (E) 23:48:22 145.935-145.965
SWISSCUBE 06 Feb 23:43:37 23:47:41 28° 49° (NE) 23:51:47 437.505
TISAT 1 06 Feb 23:44:33 23:48:44 61° 66° (ENE) 23:52:55 437.305
PRISM 06 Feb 23:49:39 23:51:41 13° 324° (NW) 23:53:43 437.425
BEESAT 2 06 Feb 23:50:38 23:54:39 62° 7° (N) 23:58:40 435.950
KKS-1 06 Feb 23:52:57 23:54:44 12° 31° (NNE) 23:56:29 437.445
VELOX 1 06 Feb 23:56:11 00:00:07 30° 267° (W) 00:04:05 145.980
AIST 1 07 Feb 00:01:13 00:04:02 17° 280° (W) 00:06:52
Cosmos 2491 07 Feb 00:06:20 00:13:51 30° 37° (NE) 00:21:22 435.465 / 435.565
AISAT 07 Feb 00:12:48 00:16:23 23° 271° (W) 00:19:59 437.250
ITUPSAT 1 07 Feb 00:18:04 00:22:32 40° 56° (NE) 00:27:00 437.325
ESTCUBE 1 07 Feb 00:21:28 00:24:53 20° 273° (W) 00:28:18 437.505/2401.250
ANTELSAT 07 Feb 00:23:47 00:27:57 51° 297° (WNW) 00:32:09 437.575/2403.000
JAS-2 07 Feb 00:26:19 00:28:49 12° 69° (ENE) 00:31:14 435.910
BEESAT 07 Feb 00:28:40 00:33:14 46° 58° (ENE) 00:37:48 436.000
POLYITAN 1 07 Feb 00:31:49 00:36:04 77° 108° (ESE) 00:40:17 437.675
TIGRISAT 07 Feb 00:31:55 00:36:01 47° 298° (WNW) 00:40:09 435.000
QB50P2 07 Feb 00:32:39 00:36:55 80° 105° (ESE) 00:41:09 145.880/145.840
CUBEBUG 1 07 Feb 00:43:21 00:46:18 17° 275° (W) 00:49:16 437.445
UKube-1 07 Feb 00:46:01 00:48:27 14° 277° (W) 00:50:53 .
STRAND 1 07 Feb 00:52:43 00:53:33 10° 350° (N) 00:54:24 437.568
DX 1 07 Feb 00:52:53 00:54:40 12° 280° (W) 00:56:26 434.975-435.025
BUGSAT 1 07 Feb 00:53:51 00:57:59 69° 106° (ESE) 01:02:01 437.445
Cosmos 2499 07 Feb 00:57:07 01:01:41 16° 303° (WNW) 01:06:08 435.465 / 435.565
MOZHAYETS 4 07 Feb 00:57:17 00:59:53 15° 37° (NE) 01:02:31
CUSAT 1 07 Feb 00:58:34 01:04:34 24° 75° (ENE) 01:10:24 437.405
RS-15 07 Feb 00:58:35 01:00:44 11° 279° (W) 01:02:54 29.354- 29.394
SPROUT 07 Feb 00:59:34 01:03:04 24° 270° (W) 01:06:34 437.525
POPSAT HIP 1 07 Feb 01:03:25 01:07:37 66° 293° (WNW) 01:11:47 437.405
DANDE 07 Feb 01:04:40 01:10:00 19° 68° (ENE) 01:15:27 436.750
NANOSAT C BR1 07 Feb 01:10:17 01:14:28 59° 295° (WNW) 01:18:36 145.865
BEESAT 3 07 Feb 01:10:32 01:14:32 75° 210° (SSW) 01:18:31 437.485
DUCHIFAT 1 07 Feb 01:13:16 01:17:24 58° 296° (WNW) 01:21:32 145.980
UNISAT 6 07 Feb 01:15:39 01:19:13 26° 309° (NW) 01:22:48 437.425
QB50P1 07 Feb 01:16:27 01:20:35 53° 297° (WNW) 01:24:41 145.935-145.965
YUBILEINY 07 Feb 01:18:52 01:23:00 14° 55° (NE) 01:27:09 435.215
STARS 07 Feb 01:18:57 01:22:19 22° 46° (NE) 01:25:40 437.465
AIST 2 07 Feb 01:19:24 01:23:34 63° 6° (N) 01:27:42 435.215
SWISSCUBE 07 Feb 01:20:19 01:25:07 85° 249° (WSW) 01:29:58 437.505
TISAT 1 07 Feb 01:21:01 01:24:44 29° 266° (W) 01:28:28 437.305
KKS-1 07 Feb 01:26:14 01:30:11 32° 53° (NE) 01:34:09 437.445
BEESAT 2 07 Feb 01:28:41 01:32:43 75° 211° (SSW) 01:36:44 435.950
Oscar 19 07 Feb 01:35:18 01:39:57 33° 93° (E) 01:44:35 437.125/150
Gurwin Techsat 1B 07 Feb 01:39:41 01:43:34 20° 84° (E) 01:47:25 435.225
ITUPSAT 1 07 Feb 01:55:37 02:00:19 55° 258° (WSW) 02:05:05 437.325
ANTELSAT 07 Feb 02:01:19 02:03:56 16° 319° (NW) 02:06:33 437.575/2403.000
Cosmos 2491 07 Feb 02:03:54 02:12:38 66° 66° (ENE) 02:21:20 435.465 / 435.565
BEESAT 07 Feb 02:06:30 02:11:06 46° 260° (W) 02:15:45 436.000
POLYITAN 1 07 Feb 02:08:04 02:11:35 26° 308° (NW) 02:15:05 437.675
QB50P2 07 Feb 02:08:54 02:12:25 26° 309° (NW) 02:15:54 145.880/145.840
TIGRISAT 07 Feb 02:09:29 02:11:55 15° 320° (NW) 02:14:21 435.000
JAS-2 07 Feb 02:09:54 02:15:55 44° 95° (E) 02:21:15 435.910
STRAND 1 07 Feb 02:29:28 02:30:45 11° 14° (NNE) 02:32:03 437.568
BUGSAT 1 07 Feb 02:29:37 02:33:07 27° 307° (NW) 02:36:35 437.445
MOZHAYETS 4 07 Feb 02:31:48 02:36:07 43° 59° (ENE) 02:40:29
ITAMSAT 1 07 Feb 02:36:49 02:41:18 27° 90° (E) 02:45:45 435.822/435.867
CUSAT 1 07 Feb 02:37:44 02:45:42 61° 98° (E) 02:53:21 437.405
POPSAT HIP 1 07 Feb 02:39:52 02:42:49 19° 315° (NW) 02:45:44 437.405
DANDE 07 Feb 02:43:34 02:51:17 50° 91° (E) 02:59:18 436.750
NANOSAT C BR1 07 Feb 02:46:46 02:49:33 17° 317° (NW) 02:52:19 145.865
BEESAT 3 07 Feb 02:48:36 02:51:52 24° 232° (SW) 02:55:06 437.485
DUCHIFAT 1 07 Feb 02:49:42 02:52:27 17° 317° (NW) 02:55:11 145.980
QB50P1 07 Feb 02:53:02 02:55:39 16° 318° (NW) 02:58:15 145.935-145.965
STARS 07 Feb 02:53:45 02:58:10 76° 68° (ENE) 03:02:35 437.465
AIST 2 07 Feb 02:58:04 03:02:15 78° 210° (SSW) 03:06:24 435.215
SWISSCUBE 07 Feb 03:00:01 03:03:40 21° 273° (W) 03:07:20 437.505
Cosmos 2504 07 Feb 03:02:01 03:06:06 14° 54° (NE) 03:10:14 435.465 / 435.565
KKS-1 07 Feb 03:02:06 03:06:34 66° 254° (WSW) 03:11:03 437.445
CUBESAT XI-V 07 Feb 03:04:37 03:08:10 22° 45° (NE) 03:11:45 437.345
BEESAT 2 07 Feb 03:06:53 03:10:11 24° 232° (SW) 03:13:28 435.950
YUBILEINY 07 Feb 03:09:20 03:17:16 40° 81° (E) 03:25:16 435.215
Oscar 19 07 Feb 03:14:34 03:19:44 69° 295° (WNW) 03:24:50 437.125/150
AO-7 07 Feb 03:16:51 03:23:42 27° 85° (E) 03:30:28 29.400- 29.500
Gurwin Techsat 1B 07 Feb 03:19:07 03:24:29 72° 106° (ESE) 03:29:49 435.225
ITUPSAT 1 07 Feb 03:36:47 03:39:17 14° 280° (W) 03:41:46 437.325
BEESAT 07 Feb 03:48:30 03:50:09 12° 282° (WNW) 03:51:50 436.000
JAS-2 07 Feb 03:55:05 04:01:20 59° 301° (WNW) 04:06:52 435.910
M-CUBED/EXP-1 PRIME 07 Feb 04:00:27 04:01:04 10° 93° (E) 04:01:42 437.505
Cosmos 2491 07 Feb 04:01:05 04:09:24 51° 272° (W) 04:17:43 435.465 / 435.565
STRAND 1 07 Feb 04:04:37 04:08:19 20° 38° (NE) 04:12:00 437.568
MOZHAYETS 4 07 Feb 04:08:55 04:13:21 47° 261° (W) 04:17:49
HORYU 2 07 Feb 04:09:43 04:13:00 20° 88° (E) 04:16:17 437.375
AUBIESAT-1 07 Feb 04:12:34 04:13:54 12° 94° (E) 04:15:14 437.475
ITAMSAT 1 07 Feb 04:16:07 04:21:24 83° 292° (WNW) 04:26:39 435.822/435.867
CUSAT 1 07 Feb 04:20:12 04:28:15 58° 300° (WNW) 04:35:52 437.405
DANDE 07 Feb 04:25:56 04:34:08 72° 295° (WNW) 04:42:36 436.750
PRISM 07 Feb 04:30:59 04:32:31 12° 33° (NNE) 04:34:03 437.425
STARS 07 Feb 04:31:23 04:35:02 25° 269° (W) 04:38:41 437.465
AIST 2 07 Feb 04:36:50 04:40:21 27° 231° (SW) 04:43:49 435.215
CUBESAT XI-V 07 Feb 04:40:15 04:44:56 69° 67° (ENE) 04:49:41 437.345
KKS-1 07 Feb 04:41:19 04:44:02 16° 276° (W) 04:46:45 437.445
Cosmos 2504 07 Feb 04:49:09 04:56:58 39° 80° (E) 05:04:57 435.465 / 435.565
Oscar 19 07 Feb 04:54:21 04:58:24 24° 318° (NW) 05:02:25 437.125/150
Gurwin Techsat 1B 07 Feb 04:59:22 05:04:12 36° 308° (NW) 05:09:02 435.225
YUBILEINY 07 Feb 05:04:39 05:13:30 82° 288° (WNW) 05:22:26 435.215
AO-7 07 Feb 05:09:38 05:18:03 71° 110° (ESE) 05:26:22 29.400- 29.500
CUTE-I 07 Feb 05:31:10 05:34:29 16° 80° (E) 05:37:46 437.470
M-CUBED/EXP-1 PRIME 07 Feb 05:33:12 05:36:29 61° 114° (ESE) 05:39:48 437.505
JAS-2 07 Feb 05:40:20 05:45:22 24° 326° (NW) 05:49:58 435.910
STRAND 1 07 Feb 05:41:39 05:46:38 54° 61° (ENE) 05:51:40 437.568
Cubesat XI-IV 07 Feb 05:43:38 05:47:26 19° 83° (E) 05:51:14 437.490
HORYU 2 07 Feb 05:45:47 05:50:16 86° 111° (ESE) 05:54:43 437.375
AUBIESAT-1 07 Feb 05:45:50 05:49:10 69° 114° (ESE) 05:52:34 437.475
LilacSat-2 07 Feb 05:45:55 05:47:42 13° 83° (E) 05:49:28 437.200
BRITE-PL 07 Feb 05:46:01 05:48:25 13° 75° (ENE) 05:50:44 437.365/2234.400
MOZHAYETS 4 07 Feb 05:50:15 05:51:43 11° 283° (WNW) 05:53:13
SO-50 07 Feb 05:50:20 05:52:45 14° 114° (ESE) 05:55:09 436.795
